Regional Weather Roundup
Issued by NWS

Home | Current Version | Previous Version | Graphics & Text | Print | Product List | Glossary On
Versions: 1 2 3 4 5 6 7 8 9 10 11 12 13 14 15 16 17 18 19 20 21 22 23 24 25 26 27 28 29 30 31 32 33 34 35 36 37 38 39 40 41 42 43 44 45 46 47 48 49 50
667
ASUS43 KBIS 082110
RWRND

NORTH DAKOTA REGIONAL WEATHER ROUNDUP
NATIONAL WEATHER SERVICE BISMARCK ND
300 PM CST THU DEC 08 2016

NOTE: "FAIR" INDICATES FEW OR NO CLOUDS BELOW 12,000 FEET WITH NO
SIGNIFICANT WEATHER AND/OR OBSTRUCTIONS TO VISIBILITY.


NDZ001>003-009>011-017-082200-
NORTHWEST NORTH DAKOTA

CITY           SKY/WX    TMP DP  RH WIND       PRES   REMARKS
WILLISTON      SUNNY     -2 -10  69 W10       30.64S WCI -19
MINOT          SUNNY      2  -6  69 W16       30.60S WCI -18
MINOT AFB      SUNNY     -1  -7  74 NW17      30.59S WCI -21
$$

NDZ018>021-031>035-040>046-082200-
SOUTHWEST NORTH DAKOTA

CITY           SKY/WX    TMP DP  RH WIND       PRES   REMARKS
BISMARCK       CLOUDY     5  -2  72 NW15      30.63S HAZE    WCI -13
DICKINSON      SUNNY     -1  -7  75 W16       30.53F WCI -21
GARRISON         N/A      1  -6  72 NW18      30.59S WCI -20
HETTINGER ARPT CLOUDY     1  -5  75 W10       30.55F WCI -15
$$

NDZ004>008-012>016-024-026-027-054-082200-
NORTHEAST NORTH DAKOTA

CITY           SKY/WX    TMP DP  RH WIND       PRES   REMARKS
GRAND FORKS    LGT SNOW  14   8  77 NW16      30.56R WCI  -2
GRND FRKS AFB  LGT SNOW  13   7  77 NW15      30.56R WCI  -2
$$

NDZ022-023-025-028>030-036>039-047>053-082200-
SOUTHEAST NORTH DAKOTA

CITY           SKY/WX    TMP DP  RH WIND       PRES   REMARKS
FARGO          LGT SNOW  15   9  76 NW16      30.56R WCI  -1
JAMESTOWN      MOSUNNY    3  -3  76 NW20G29   30.57R WCI -18
$$





USA.gov is the U.S. government's official web portal to all federal, state and local government web resources and services.